Location: Capvern
(43.1036°N, 0.3160°E)
Time: 05:10:34
(UTC+00:00)

Cosmos 489 Rocket - Pass Details

Date: 05 June 2022
Orbit: 952 x 983 km, 74.0° (Epoch: 03 July)

Event Time Altitude Azimuth Distance (km) Brightness Sun altitude
Rises 00:16:35 0° 351° (N) 3,649 8.8 -24.2°
Reaches altitude 10° 00:20:15 10° 12° (NNE) 2,704 7.9 -24.2°
Maximum altitude 00:24:01 16° 49° (NE) 2,282 7.0 -24.1°
Drops below altitude 10° 00:27:47 10° 87° (E) 2,709 6.9 -24.0°
Sets 00:31:26 0° 108° (ESE) 3,658 7.4 -23.9°
